Time,TemperatureF,DewpointF,PressureIn,WindDirection,WindDirectionDegrees,WindSpeedMPH,WindSpeedGustMPH,Humidity,HourlyPrecipIn,Conditions,Clouds,dailyrainin,SolarRadiationWatts/m^2,SoftwareType,DateUTC
2013-01-01 00:11:00,34.0,26.0,-100.00,NW,305,8.0,11.0,72,-99.99,,,0.00,0.000000,,2013-01-01 08:11:00,
2013-01-01 01:11:00,33.0,26.0,-100.00,WNW,294,8.0,10.0,74,-99.99,,,0.00,0.000000,,2013-01-01 09:11:00,
2013-01-01 01:22:00,33.0,26.0,-100.00,WNW,294,8.0,10.0,74,-99.99,,,0.00,0.000000,,2013-01-01 09:22:00,
2013-01-01 01:32:00,33.0,26.0,-100.00,WNW,294,8.0,10.0,74,-99.99,,,0.00,0.000000,,2013-01-01 09:32:00,
2013-01-01 01:42:00,33.0,26.0,-100.00,WNW,294,8.0,10.0,74,-99.99,,,0.00,0.000000,,2013-01-01 09:42:00,
2013-01-01 01:52:00,33.0,26.0,-100.00,WNW,294,8.0,10.0,74,-99.99,,,0.00,0.000000,,2013-01-01 09:52:00,
2013-01-01 02:12:00,33.0,26.0,-100.00,WNW,300,7.0,11.0,74,0.00,,,0.00,0.000000,,2013-01-01 10:12:00,
2013-01-01 02:22:00,33.0,26.0,-100.00,WNW,300,7.0,11.0,74,0.00,,,0.00,0.000000,,2013-01-01 10:22:00,
2013-01-01 02:32:00,33.0,26.0,-100.00,WNW,300,7.0,11.0,74,0.00,,,0.00,0.000000,,2013-01-01 10:32:00,
2013-01-01 02:42:00,33.0,26.0,-100.00,WNW,300,7.0,11.0,74,0.00,,,0.00,0.000000,,2013-01-01 10:42:00,
2013-01-01 02:52:00,33.0,26.0,-100.00,WNW,300,7.0,11.0,74,0.00,,,0.00,0.000000,,2013-01-01 10:52:00,
2013-01-01 03:12:00,33.0,25.0,-100.00,WNW,297,9.0,11.0,71,0.00,,,0.00,0.000000,,2013-01-01 11:12:00,
2013-01-01 03:22:00,33.0,25.0,-100.00,WNW,297,9.0,11.0,71,0.00,,,0.00,0.000000,,2013-01-01 11:22:00,
2013-01-01 03:32:00,33.0,25.0,-100.00,WNW,297,9.0,11.0,71,0.00,,,0.00,0.000000,,2013-01-01 11:32:00,
2013-01-01 03:42:00,33.0,25.0,-100.00,WNW,297,9.0,11.0,71,0.00,,,0.00,0.000000,,2013-01-01 11:42:00,
2013-01-01 03:52:00,33.0,25.0,-100.00,WNW,297,9.0,11.0,71,0.00,,,0.00,0.000000,,2013-01-01 11:52:00,
2013-01-01 04:12:00,33.0,25.0,-100.00,NW,308,8.0,14.0,72,0.00,,,0.00,0.000000,,2013-01-01 12:12:00,
2013-01-01 04:22:00,33.0,25.0,-100.00,NW,308,8.0,14.0,72,0.00,,,0.00,0.000000,,2013-01-01 12:22:00,
2013-01-01 04:32:00,33.0,25.0,-100.00,NW,308,8.0,14.0,72,0.00,,,0.00,0.000000,,2013-01-01 12:32:00,
2013-01-01 04:42:00,33.0,25.0,-100.00,NW,308,8.0,14.0,72,0.00,,,0.00,0.000000,,2013-01-01 12:42:00,
2013-01-01 04:52:00,33.0,25.0,-100.00,NW,308,8.0,14.0,72,0.00,,,0.00,0.000000,,2013-01-01 12:52:00,
2013-01-01 05:12:00,34.0,25.0,-100.00,WNW,282,9.0,14.0,70,0.00,,,-99.99,0.000000,,2013-01-01 13:12:00,
2013-01-01 05:22:00,34.0,25.0,-100.00,WNW,282,9.0,14.0,70,0.00,,,-99.99,0.000000,,2013-01-01 13:22:00,
2013-01-01 05:42:00,34.0,25.0,-100.00,WNW,282,9.0,14.0,70,0.00,,,-99.99,0.000000,,2013-01-01 13:42:00,
2013-01-01 05:52:00,34.0,25.0,-100.00,WNW,282,9.0,14.0,70,0.00,,,-99.99,0.000000,,2013-01-01 13:52:00,
2013-01-01 06:12:00,33.0,22.0,-100.00,WNW,289,9.0,17.0,64,0.00,,,0.00,0.000000,,2013-01-01 14:12:00,
2013-01-01 06:22:00,33.0,22.0,-100.00,WNW,289,9.0,17.0,64,0.00,,,0.00,0.000000,,2013-01-01 14:22:00,
2013-01-01 06:32:00,33.0,22.0,-100.00,WNW,289,9.0,17.0,64,0.00,,,0.00,0.000000,,2013-01-01 14:32:00,
2013-01-01 06:42:00,33.0,22.0,-100.00,WNW,289,9.0,17.0,64,0.00,,,0.00,0.000000,,2013-01-01 14:42:00,
2013-01-01 06:52:00,33.0,22.0,-100.00,WNW,289,9.0,17.0,64,0.00,,,0.00,0.000000,,2013-01-01 14:52:00,
2013-01-01 07:12:00,35.0,24.0,-100.00,West,277,8.0,16.0,64,0.00,,,0.00,0.000000,,2013-01-01 15:12:00,
2013-01-01 07:22:00,35.0,24.0,-100.00,West,277,8.0,16.0,64,0.00,,,0.00,0.000000,,2013-01-01 15:22:00,
2013-01-01 08:12:00,36.0,25.0,-100.00,WNW,295,9.0,17.0,63,-99.99,,,0.00,4.000000,,2013-01-01 16:12:00,
2013-01-01 08:22:00,36.0,25.0,-100.00,WNW,295,9.0,17.0,63,-99.99,,,0.00,4.000000,,2013-01-01 16:22:00,
2013-01-01 09:22:00,37.0,23.0,-100.00,WNW,296,12.0,20.0,56,-99.99,,,0.00,90.000000,,2013-01-01 17:22:00,
2013-01-01 10:12:00,35.0,23.0,-100.00,WNW,300,20.0,29.0,60,-99.99,,,0.00,238.000000,,2013-01-01 18:12:00,
2013-01-01 10:22:00,35.0,23.0,-100.00,WNW,300,20.0,29.0,60,-99.99,,,0.00,238.000000,,2013-01-01 18:22:00,
2013-01-01 10:33:00,35.0,23.0,-100.00,WNW,300,20.0,29.0,60,-99.99,,,0.00,238.000000,,2013-01-01 18:33:00,
2013-01-01 10:42:00,35.0,23.0,-100.00,WNW,300,20.0,29.0,60,-99.99,,,0.00,238.000000,,2013-01-01 18:42:00,
2013-01-01 10:52:00,35.0,23.0,-100.00,WNW,300,20.0,29.0,60,-99.99,,,0.00,238.000000,,2013-01-01 18:52:00,
2013-01-01 11:22:00,44.0,21.0,-100.00,WNW,298,11.0,25.0,39,0.00,,,0.00,356.000000,,2013-01-01 19:22:00,
2013-01-01 12:22:00,48.0,24.0,-100.00,WNW,296,5.0,18.0,39,-99.99,,,0.00,427.000000,,2013-01-01 20:22:00,
2013-01-01 13:12:00,54.0,25.0,-100.00,WSW,239,5.0,10.0,32,0.00,,,0.00,436.000000,,2013-01-01 21:12:00,
2013-01-01 14:12:00,52.0,24.0,-100.00,SW,235,5.0,13.0,33,-99.99,,,0.00,406.000000,,2013-01-01 22:12:00,
2013-01-01 14:22:00,52.0,24.0,-100.00,SW,235,5.0,13.0,33,-99.99,,,0.00,406.000000,,2013-01-01 22:22:00,
2013-01-01 14:32:00,52.0,24.0,-100.00,SW,235,5.0,13.0,33,-99.99,,,0.00,406.000000,,2013-01-01 22:32:00,
2013-01-01 15:12:00,53.0,25.0,-100.00,West,269,4.0,10.0,33,-99.99,,,0.00,318.000000,,2013-01-01 23:12:00,
2013-01-01 15:42:00,53.0,25.0,-100.00,West,269,4.0,10.0,33,-99.99,,,0.00,318.000000,,2013-01-01 23:42:00,
2013-01-01 15:52:00,53.0,25.0,-100.00,West,269,4.0,10.0,33,-99.99,,,0.00,318.000000,,2013-01-01 23:52:00,
2013-01-01 16:12:00,51.0,22.0,-100.00,WSW,243,4.0,8.0,32,-99.99,,,0.00,192.000000,,2013-01-02 00:12:00,
2013-01-01 16:22:00,51.0,22.0,-100.00,WSW,243,4.0,8.0,32,-99.99,,,0.00,192.000000,,2013-01-02 00:22:00,
2013-01-01 16:32:00,51.0,22.0,-100.00,WSW,243,4.0,8.0,32,-99.99,,,0.00,192.000000,,2013-01-02 00:32:00,
2013-01-01 16:42:00,51.0,22.0,-100.00,WSW,243,4.0,8.0,32,-99.99,,,0.00,192.000000,,2013-01-02 00:42:00,
2013-01-01 16:52:00,51.0,22.0,-100.00,WSW,243,4.0,8.0,32,-99.99,,,0.00,192.000000,,2013-01-02 00:52:00,
2013-01-01 17:12:00,45.0,20.0,-100.00,NW,320,6.0,7.0,36,-99.99,,,0.00,33.000000,,2013-01-02 01:12:00,
2013-01-01 17:22:00,45.0,20.0,-100.00,NW,320,6.0,7.0,36,-99.99,,,0.00,33.000000,,2013-01-02 01:22:00,
2013-01-01 17:32:00,45.0,20.0,-100.00,NW,320,6.0,7.0,36,-99.99,,,0.00,33.000000,,2013-01-02 01:32:00,
2013-01-01 17:42:00,45.0,20.0,-100.00,NW,320,6.0,7.0,36,-99.99,,,0.00,33.000000,,2013-01-02 01:42:00,
2013-01-01 17:52:00,45.0,20.0,-100.00,NW,320,6.0,7.0,36,-99.99,,,0.00,33.000000,,2013-01-02 01:52:00,
2013-01-01 18:12:00,43.0,20.0,-100.00,NW,305,9.0,11.0,40,0.00,,,0.00,1.000000,,2013-01-02 02:12:00,
2013-01-01 18:22:00,43.0,20.0,-100.00,NW,305,9.0,11.0,40,0.00,,,0.00,1.000000,,2013-01-02 02:22:00,
2013-01-01 18:32:00,43.0,20.0,-100.00,NW,305,9.0,11.0,40,0.00,,,0.00,1.000000,,2013-01-02 02:32:00,
2013-01-01 19:11:00,41.0,21.0,-100.00,WNW,288,10.0,15.0,44,-99.99,,,0.00,0.000000,,2013-01-02 03:11:00,
2013-01-01 19:22:00,41.0,21.0,-100.00,WNW,288,10.0,15.0,44,-99.99,,,0.00,0.000000,,2013-01-02 03:22:00,
2013-01-01 19:32:00,41.0,21.0,-100.00,WNW,288,10.0,15.0,44,-99.99,,,0.00,0.000000,,2013-01-02 03:32:00,
2013-01-01 19:42:00,41.0,21.0,-100.00,WNW,288,10.0,15.0,44,-99.99,,,0.00,0.000000,,2013-01-02 03:42:00,
2013-01-01 19:52:00,41.0,21.0,-100.00,WNW,288,10.0,15.0,44,-99.99,,,0.00,0.000000,,2013-01-02 03:52:00,
2013-01-01 20:12:00,43.0,19.0,-100.00,WNW,296,9.0,16.0,37,-99.99,,,0.00,0.000000,,2013-01-02 04:12:00,
2013-01-01 20:22:00,43.0,19.0,-100.00,WNW,296,9.0,16.0,37,-99.99,,,0.00,0.000000,,2013-01-02 04:22:00,
2013-01-01 21:12:00,43.0,18.0,-100.00,WNW,293,10.0,16.0,36,-99.99,,,0.00,0.000000,,2013-01-02 05:12:00,
2013-01-01 21:22:00,43.0,18.0,-100.00,WNW,293,10.0,16.0,36,-99.99,,,0.00,0.000000,,2013-01-02 05:22:00,
2013-01-01 22:22:00,42.0,19.0,-100.00,NW,304,11.0,13.0,39,-99.99,,,0.00,0.000000,,2013-01-02 06:22:00,
2013-01-01 23:12:00,42.0,19.0,-100.00,NW,307,9.0,15.0,39,-99.99,,,0.00,0.000000,,2013-01-02 07:12:00,
2013-01-01 23:22:00,42.0,19.0,-100.00,NW,307,9.0,15.0,39,-99.99,,,0.00,0.000000,,2013-01-02 07:22:00,